www.pogodaiklimat.ru

АРХИВ ПОГОДЫ в Верхоянске

Время (UTC), дата Ветер
(напр.,м/с)
 
Видим.   Явления Облачность Т
(С)
Тd
(С)
f
(%)
Тe
(С)
Тes
(С)
Комфортность P
(гПа)
Po
(гПа)
Тmin
(С)
Tmax
(С)
R
(мм)
S
(см)
12 15.01 штиль 0 20 км ясно -46.2 -48.1 81 -46 -46 опасность
обморожения
1050.6 1029.2
15 15.01 З 1 20 км ясно -46.1 -48.1 80 -52 -52 опасность
обморожения
1050.1 1028.7
18 15.01 З 1 20 км ясно -46.0 -48.1 79 -52 -52 опасность
обморожения
1049.8 1028.4
21 15.01 ЮЗ 1 20 км ясно -46.0 -48.1 79 -52 -52 опасность
обморожения
1049.7 1028.3 -46.5 32
00 16.01 ЮЗ 1 20 км ясно -46.0 -48.1 79 -52 -52 опасность
обморожения
1049.7 1028.3 -46.2
03 16.01 З 1 20 км дым ясно -45.7 -48.1 76 -52 -52 опасность
обморожения
1049.2 1027.8
06 16.01 штиль 0 50 км ясно -45.3 -47.2 81 -45 -45 опасность
обморожения
1048.0 1026.8
09 16.01 штиль 0 20 км ясно -45.7 -48.1 76 -46 -46 опасность
обморожения
1047.6 1026.3 -45.3
12 16.01 штиль 0 20 км ясно -46.3 -48.4 79 -46 -46 опасность
обморожения
1046.9 1025.6
15 16.01 З 1 10 км дым ясно -46.5 -48.6 79 -52 -52 опасность
обморожения
1045.6 1024.3
18 16.01 штиль 0 20 км ясно -46.7 -48.8 79 -47 -47 опасность
обморожения
1044.5 1023.1
21 16.01 штиль 0 20 км ясно -47.0 -49.1 79 -47 -47 опасность
обморожения
1043.4 1022.1 -47.4 32
00 17.01 ЮЗ 1 20 км ясно -46.5 -49.0 75 -52 -52 опасность
обморожения
1042.3 1021.0
03 17.01 З 1 50 км 3/0
[Ci fib]
-46.1 -48.1 80 -52 -52 опасность
обморожения
1040.8 1019.6
06 17.01 З 1 50 км 6/0
[Ci fib]
-45.7 -48.1 76 -52 -52 опасность
обморожения
1039.5 1018.3
09 17.01 ЮЗ 1 20 км 8/0
[Ci fib]
-45.3 -47.2 81 -51 -51 опасность
обморожения
1038.8 1017.7 -45.3
12 17.01 З 1 20 км 8/0
[Ci fib]
-44.8 -47.2 77 -51 -51 опасность
обморожения
1038.0 1017.0
15 17.01 З 2 20 км 5/0
[Ci fib]
-45.3 -47.2 81 -55 -55 опасность
обморожения
1036.6 1015.6
18 17.01 ЮЗ 1 20 км 3/0
[Ci fib]
-46.0 -48.1 79 -52 -52 опасность
обморожения
1036.0 1014.9
21 17.01 ЮЗ 1 20 км 8/0
[Ci fib]
-45.8 -48.1 77 -52 -52 опасность
обморожения
1034.9 1013.8 -46.3 32
00 18.01 З 1 20 км 9/0
[Ci fib]
-45.0 -47.1 79 -51 -51 опасность
обморожения
1033.5 1012.5
03 18.01 З 1 50 км 3/0
[Ac trans Ci fib]
-45.5 -47.6 79 -51 -51 опасность
обморожения
1032.4 1011.4
06 18.01 З 1 50 км 8/0
[Cc]
-45.3 -47.4 79 -51 -51 опасность
обморожения
1032.0 1011.1
09 18.01 ЮЗ 1 20 км 10/0
[Cs]
-44.2 -46.4 79 -50 -50 опасность
обморожения
1032.4 1011.6 -44.2
12 18.01 штиль 0 20 км 4/0
[Ci fib]
-44.1 -46.4 78 -44 -44 опасность
обморожения
1032.4 1011.6
15 18.01 штиль 0 20 км 3/0
[Ci fib]
-45.9 -48.1 78 -46 -46 опасность
обморожения
1032.6 1011.6
18 18.01 штиль 0 20 км ясно -46.8 -49.0 78 -47 -47 опасность
обморожения
1032.7 1011.6
21 18.01 штиль 0 20 км ясно -47.0 -49.0 80 -47 -47 опасность
обморожения
1032.5 1011.4 -47.5 32
00 19.01 штиль 0 20 км ясно -47.1 -49.0 81 -47 -47 опасность
обморожения
1032.4 1011.3 -47.2
03 19.01 ЮЗ 1 50 км ясно -46.6 -49.0 76 -53 -52 опасность
обморожения
1031.8 1010.7
06 19.01 штиль 0 50 км ясно -46.5 -49.0 75 -47 -47 опасность
обморожения
1031.0 1010.0
09 19.01 ЮЗ 1 20 км ясно -47.0 -49.0 80 -53 -53 опасность
обморожения
1031.1 1010.0 -46.5
12 19.01 ЮЗ 1 20 км ясно -47.5 -49.6 79 -54 -54 опасность
обморожения
1031.0 1009.8
15 19.01 штиль 0 20 км ясно -47.6 -49.7 79 -48 -48 опасность
обморожения
1030.2 1009.0
18 19.01 ЮЗ 1 20 км ясно -47.8 -49.9 79 -54 -54 опасность
обморожения
1029.9 1008.7
21 19.01 ЮЗ 1 20 км ясно -48.3 -50.4 79 -54 -54 опасность
обморожения
1030.1 1008.9 -48.3 32
00 20.01 штиль 0 20 км 1/0
[Ci fib]
-48.5 -50.0 84 -49 -49 опасность
обморожения
1029.6 1008.3 -48.5
03 20.01 ЮЗ 1 50 км 6/0
[Ci fib]
-47.5 -50.0 75 -54 -53 опасность
обморожения
1029.3 1008.1
06 20.01 Ю 1 50 км 5/0
[Ci fib]
-46.6 -49.0 76 -53 -53 опасность
обморожения
1028.7 1007.6
09 20.01 штиль 0 20 км 3/0
[Ci fib]
-47.2 -49.0 82 -47 -47 опасность
обморожения
1028.9 1007.8 -46.6
12 20.01 штиль 0 20 км 5/0
[Ci fib]
-47.0 -49.0 80 -47 -47 опасность
обморожения
1029.6 1008.5
15 20.01 ЮЗ 1 20 км 10/0
[Ci fib]
-46.2 -48.1 81 -52 -52 опасность
обморожения
1029.1 1008.1
18 20.01 ЮЗ 1 20 км 10/0
[Ci fib]
-45.6 -48.1 76 -51 -51 опасность
обморожения
1029.0 1008.1
21 20.01 ЮЗ 1 20 км 5/0
[Ci fib]
-46.1 -48.1 80 -52 -52 опасность
обморожения
1029.6 1008.6 -47.4 32
00 21.01 ЮЗ 1 20 км ясно -47.0 -49.1 79 -53 -53 опасность
обморожения
1030.1 1009.0 -47.0
03 21.01 З 1 50 км ясно -47.1 -49.2 79 -53 -53 опасность
обморожения
1029.8 1008.7
06 21.01 ЮЗ 1 50 км 4/0
[Ci fib]
-46.4 -48.5 79 -52 -52 опасность
обморожения
1029.0 1008.0
09 21.01 штиль 0 20 км 5/0
[Ci fib]
-45.6 -47.7 79 -46 -46 опасность
обморожения
1028.7 1007.7 -45.6
12 21.01 штиль 0 20 км 10/0
[Ci fib]
-45.0 -47.2 78 -45 -45 опасность
обморожения
1027.3 1006.5
15 21.01 З 1 20 км 10/0
[Ci fib]
-44.2 -46.4 79 -50 -50 опасность
обморожения
1025.5 1004.8
18 21.01 штиль 0 20 км 10/0
[Cs]
-42.6 -45.0 77 -43 -43 опасность
обморожения
1023.5 1002.9
21 21.01 штиль 0 20 км 10/0
[Ci fib]
-42.0 -44.4 77 -42 -42 опасность
обморожения
1022.0 1001.6 -45.8 32
00 22.01 штиль 0 20 км 10/0
[Cs]
-40.5 -42.7 79 -41 -41 опасность
обморожения
1020.8 1000.5 -42.2
03 22.01 штиль 0 50 км 10/0
[Ac trans Cs]
-37.5 -39.9 78 -38 -37 опасность
обморожения
1018.7 998.7
06 22.01 штиль 0 50 км 10/0
[Ac und Cs]
-34.8 -37.1 79 -35 -35 опасность
обморожения
1017.3 997.5
09 22.01 ЮЗ 1 20 км 10/0
[Ac As]
-33.8 -36.2 79 -38 -38 опасность
обморожения
1016.5 996.9 -33.8

 

Местоположение метеостанции Верхоянск (Якутия, Россия): широта 67.57 долгота 133.40 высота над уровнем моря 136 м.

В архиве по умолчанию представлена погода в Верхоянске за последнюю неделю. Архивные данные за месяц целиком и за предыдущие месяцы, начиная с января 2011 года, Вы можете получить, выбрав интересующий диапазон дат из раскрывающегося списка и нажав кнопку "Ввод!".

Внимание! Время в таблицах - всемирное. Для получения местного времени необходимо прибавить поправку, которая в Верхоянске равна 10 ч.

Ветер - указаны скорость ветра в м/с - средняя за 10 мин, порывы в срок и между сроками (в фигурных скобках) и направление, откуда дует ветер: С - северный, СВ - северо-восточный, В - восточный, ЮВ - юго-восточный, Ю - южный, ЮЗ - юго-западный, З - западный, СЗ - северо-западный.
Видимость - горизонтальная дальность видимости в метрах или километрах. При видимости от 1 до 10 км при отсутствии осадков обычно наблюдается дымка, при ухудшении видимости до 1 км и менее - туман. В сухую погоду видимость может ухудшаться дымом, пылью или мглою.
Явления - указаны атмосферные явления, наблюдавшиеся в срок или в последний час перед сроком; фигурными скобками обозначены явления, наблюдавшиеся между сроками (за 1-3 часа до срока); квадратными скобками обозначены град или гололедные отложения с указанием их диаметра в мм.
Облачность - указаны через наклонную черту общая и нижняя облачность в баллах и высота нижней границы облаков в метрах; квадратными скобками обозначены формы облаков: Ci - перистые, Cs - перисто-слоистые, Cc - перисто-кучевые, Ac - высококучевые, As - высокослоистые, Sc - слоисто-кучевые, Ns - слоисто-дождевые, Cu - кучевые, Cb - кучево-дождевые. Подробнее классификацию облаков см. в Атласе облаков (PDF).
T - Температура воздуха - температура, измеренная на высоте 2 м над землей.
Td - Температура точки росы - температура, при понижении до которой содержащийся в воздухе водяной пар достигнет насыщения.
f - Относительная влажность воздуха - влажноcть воздуха, измеренная на высоте 2 м над землей.
Te - Эффективная температура - температура, которую ощущает одетый по сезону человек в тени. Характеристика душности погоды. При расчете учитывается влияние влажности воздуха и скорости ветра на теплоощущения человека.
Tes - Эффективная температура на солнце - температура, которую ощущает человек, с поправкой на солнечный нагрев. Характеристика знойности погоды. Зависит от высоты солнца над горизонтом, облачности и скорости ветра. Ночью, в пасмурную погоду, а также при ветре 12 м/с и более поправка равна нулю.
P - Атмосферное давление - приведенное к уровню моря атмосферное давление.
Po - Атмосферное давление - измеренное на уровне метеостанции атмосферное давление.
Tmin - Минимальная температура - минимум температуры воздуха на высоте 2 м над землей.
Tmax - Максимальная температура - максимум температуры воздуха на высоте 2 м над землей.
R - Количество осадков - Количество выпавших осадков, мм. При наведении курсора мыши на число - период времени, за который выпало указанное количество осадков.
S - Снежный покров - Высота снежного покрова, см. При наведении курсора мыши на число - состояние снежного покрова и степень покрытия местности в баллах.